Location: Newark
(1.4692°S, 78.8175°W)
Time: 10:56:56
(UTC+00:00)

Envisat - Visible Passes

Search period start: 23 October 2019 00:00
Search period end: 02 November 2019 00:00
Orbit: 764 x 766 km, 98.1° (Epoch: 23 October)

Date Brightness Start Highest point End Pass type
(mag) Time Alt. Az. Time Alt. Az. Time Alt. Az.
23 Oct 4.8 00:24:43 10° SSW 00:29:12 32° WSW 00:33:41 10° NW visible
23 Oct 3.0 23:47:28 10° SSE 23:52:34 88° ENE 23:57:38 10° N visible
25 Oct 5.9 00:51:40 10° SW 00:54:37 16° WSW 00:57:33 10° WNW visible
26 Oct 4.2 00:13:10 10° S 00:17:59 44° WSW 00:22:46 10° NNW visible
26 Oct 3.0 23:36:17 10° SSE 23:41:20 64° ENE 23:46:20 10° N visible
28 Oct 5.5 00:39:37 10° SSW 00:43:23 21° WSW 00:47:10 10° NW visible
29 Oct 3.6 00:01:44 10° S 00:06:45 60° WSW 00:11:44 10° NNW visible
29 Oct 3.2 23:25:13 10° SSE 23:30:05 46° ENE 23:34:55 10° N visible
31 Oct 5.0 00:27:50 10° SSW 00:32:10 29° WSW 00:36:29 10° NW visible
31 Oct 3.1 23:50:25 10° S 23:55:31 83° WSW 00:00:35 10° NNW visible
